Time,TemperatureF,DewpointF,PressureIn,WindDirection,WindDirectionDegrees,WindSpeedMPH,WindSpeedGustMPH,Humidity,HourlyPrecipIn,Conditions,Clouds,dailyrainin,SolarRadiationWatts/m^2,SoftwareType,DateUTC
2013-03-21 00:00:00,40.3,22.2,29.84,NW,306,0.0,0.0,48,0.00,,---,0.00,0.00,VWS V14.01,2013-03-21 04:00:00,
2013-03-21 00:05:00,40.1,22.5,29.84,NW,317,0.0,0.0,49,0.00,,---,0.00,0.00,VWS V14.01,2013-03-21 04:05:00,
2013-03-21 00:10:00,39.5,21.5,29.84,NNW,329,0.0,0.0,48,0.00,,---,0.00,0.00,VWS V14.01,2013-03-21 04:10:00,
2013-03-21 00:15:00,39.1,21.6,29.84,WNW,294,0.0,0.0,49,0.00,,---,0.00,0.00,VWS V14.01,2013-03-21 04:15:00,
2013-03-21 00:20:00,39.2,22.6,29.84,NNW,339,0.0,0.0,51,0.00,,---,0.00,0.00,VWS V14.01,2013-03-21 04:20:00,
2013-03-21 00:25:00,39.0,22.0,29.83,NE,37,0.0,0.0,50,0.00,,---,0.00,0.00,VWS V14.01,2013-03-21 04:25:00,
2013-03-21 00:30:00,39.3,21.8,29.84,North,9,0.0,0.0,49,0.00,,---,0.00,0.00,VWS V14.01,2013-03-21 04:30:00,
2013-03-21 00:35:00,38.7,21.7,29.83,NNW,338,0.0,0.0,50,0.00,,---,0.00,0.00,VWS V14.01,2013-03-21 04:35:00,
2013-03-21 00:40:00,38.1,22.0,29.83,NNW,337,0.0,0.0,52,0.00,,---,0.00,0.00,VWS V14.01,2013-03-21 04:40:00,
2013-03-21 00:45:00,38.0,23.3,29.84,WNW,297,0.0,0.0,55,0.00,,---,0.00,0.00,VWS V14.01,2013-03-21 04:45:00,
2013-03-21 00:50:00,38.2,23.5,29.84,West,279,0.0,0.0,55,0.00,,---,0.00,0.00,VWS V14.01,2013-03-21 04:50:00,
2013-03-21 00:55:00,38.3,24.0,29.84,WNW,294,0.0,0.0,56,0.00,,---,0.00,0.00,VWS V14.01,2013-03-21 04:55:00,
2013-03-21 01:00:00,37.7,23.4,29.84,North,355,0.0,0.0,56,0.00,,---,0.00,0.00,VWS V14.01,2013-03-21 05:00:00,
2013-03-21 01:05:00,37.3,23.9,29.84,NW,310,0.0,0.0,58,0.00,,---,0.00,0.00,VWS V14.01,2013-03-21 05:05:00,
2013-03-21 01:10:00,37.2,23.8,29.84,NNE,12,0.0,0.0,58,0.00,,---,0.00,0.00,VWS V14.01,2013-03-21 05:10:00,
2013-03-21 01:15:00,37.0,24.0,29.84,North,9,0.0,0.0,59,0.00,,---,0.00,0.00,VWS V14.01,2013-03-21 05:15:00,
2013-03-21 01:20:00,36.9,25.5,29.84,NNW,342,0.0,0.0,63,0.00,,---,0.00,0.00,VWS V14.01,2013-03-21 05:20:00,
2013-03-21 01:25:00,36.1,26.2,29.84,NNW,340,0.0,0.0,67,0.00,,---,0.00,0.00,VWS V14.01,2013-03-21 05:25:00,
2013-03-21 01:30:00,35.9,26.4,29.83,NNE,27,0.0,0.0,68,0.00,,---,0.00,0.00,VWS V14.01,2013-03-21 05:30:00,
2013-03-21 01:35:00,35.5,26.0,29.83,NNW,338,0.0,0.0,68,0.00,,---,0.00,0.00,VWS V14.01,2013-03-21 05:35:00,
2013-03-21 01:40:00,36.0,26.5,29.83,NW,325,0.0,0.0,68,0.00,,---,0.00,0.00,VWS V14.01,2013-03-21 05:40:00,
2013-03-21 01:45:00,35.5,25.6,29.82,North,5,0.0,0.0,67,0.00,,---,0.00,0.00,VWS V14.01,2013-03-21 05:45:00,
2013-03-21 01:50:00,35.5,26.0,29.82,NNW,344,0.0,0.0,68,0.00,,---,0.00,0.00,VWS V14.01,2013-03-21 05:50:00,
2013-03-21 01:55:00,35.1,26.0,29.82,North,350,0.0,0.0,69,0.00,,---,0.00,0.00,VWS V14.01,2013-03-21 05:55:00,
2013-03-21 02:00:00,35.4,26.3,29.83,NNW,341,0.0,0.0,69,0.00,,---,0.00,0.00,VWS V14.01,2013-03-21 06:00:00,
2013-03-21 02:05:00,34.9,26.5,29.82,North,11,0.0,0.0,71,0.00,,---,0.00,0.00,VWS V14.01,2013-03-21 06:05:00,
2013-03-21 02:10:00,34.5,27.1,29.82,NNW,338,0.0,0.0,74,0.00,,---,0.00,0.00,VWS V14.01,2013-03-21 06:10:00,
2013-03-21 02:15:00,34.2,27.4,29.82,North,360,0.0,0.0,76,0.00,,---,0.00,0.00,VWS V14.01,2013-03-21 06:15:00,
2013-03-21 02:20:00,33.9,27.5,29.82,NNW,347,0.0,0.0,77,0.00,,---,0.00,0.00,VWS V14.01,2013-03-21 06:20:00,
2013-03-21 02:25:00,33.9,27.5,29.83,NNE,30,0.0,0.0,77,0.00,,---,0.00,0.00,VWS V14.01,2013-03-21 06:25:00,
2013-03-21 02:30:00,33.7,27.6,29.82,North,360,0.0,0.0,78,0.00,,---,0.00,0.00,VWS V14.01,2013-03-21 06:30:00,
2013-03-21 02:35:00,33.5,27.7,29.82,NE,46,0.0,0.0,79,0.00,,---,0.00,0.00,VWS V14.01,2013-03-21 06:35:00,
2013-03-21 02:40:00,33.2,28.0,29.82,NNE,18,0.0,0.0,81,0.00,,---,0.00,0.00,VWS V14.01,2013-03-21 06:40:00,
2013-03-21 02:45:00,33.0,27.8,29.81,North,355,0.0,0.0,81,0.00,,---,0.00,0.00,VWS V14.01,2013-03-21 06:45:00,
2013-03-21 02:50:00,33.0,28.4,29.81,North,5,0.0,0.0,83,0.00,,---,0.00,0.00,VWS V14.01,2013-03-21 06:50:00,
2013-03-21 02:55:00,33.0,28.1,29.81,North,360,0.0,0.0,82,0.00,,---,0.00,0.00,VWS V14.01,2013-03-21 06:55:00,
2013-03-21 03:00:00,32.9,28.3,29.81,North,5,0.0,0.0,83,0.00,,---,0.00,0.00,VWS V14.01,2013-03-21 07:00:00,
2013-03-21 03:05:00,32.9,28.3,29.81,NNE,16,0.0,0.0,83,0.00,,---,0.00,0.00,VWS V14.01,2013-03-21 07:05:00,
2013-03-21 03:10:00,32.9,28.6,29.81,North,360,0.0,0.0,84,0.00,,---,0.00,0.00,VWS V14.01,2013-03-21 07:10:00,
2013-03-21 03:15:00,32.8,28.5,29.81,NE,52,0.0,0.0,84,0.00,,---,0.00,0.00,VWS V14.01,2013-03-21 07:15:00,
2013-03-21 03:20:00,32.6,28.3,29.81,NNE,23,0.0,0.0,84,0.00,,---,0.00,0.00,VWS V14.01,2013-03-21 07:20:00,
2013-03-21 03:25:00,32.7,28.7,29.81,NNE,13,0.0,0.0,85,0.00,,---,0.00,0.00,VWS V14.01,2013-03-21 07:25:00,
2013-03-21 03:30:00,32.8,28.5,29.81,North,11,0.0,0.0,84,0.00,,---,0.00,0.00,VWS V14.01,2013-03-21 07:30:00,
2013-03-21 03:35:00,32.9,28.6,29.80,North,355,0.0,0.0,84,0.00,,---,0.00,0.00,VWS V14.01,2013-03-21 07:35:00,
2013-03-21 03:40:00,32.6,28.0,29.79,NNE,33,0.0,0.0,83,0.00,,---,0.00,0.00,VWS V14.01,2013-03-21 07:40:00,
2013-03-21 03:45:00,32.4,27.8,29.79,North,355,0.0,0.0,83,0.00,,---,0.00,0.00,VWS V14.01,2013-03-21 07:45:00,
2013-03-21 03:50:00,32.1,27.2,29.78,NW,309,0.0,0.0,82,0.00,,---,0.00,0.00,VWS V14.01,2013-03-21 07:50:00,
2013-03-21 03:55:00,32.3,27.1,29.78,NNE,21,0.0,0.0,81,0.00,,---,0.00,0.00,VWS V14.01,2013-03-21 07:55:00,
2013-03-21 04:00:00,32.2,27.0,29.79,North,5,0.0,0.0,81,0.00,,---,0.00,0.00,VWS V14.01,2013-03-21 08:00:00,
2013-03-21 04:05:00,32.4,26.6,29.78,North,350,0.0,0.0,79,0.00,,---,0.00,0.00,VWS V14.01,2013-03-21 08:05:00,
2013-03-21 04:10:00,32.7,26.9,29.78,NNE,18,0.0,0.0,79,0.00,,---,0.00,0.00,VWS V14.01,2013-03-21 08:10:00,
2013-03-21 04:15:00,32.7,26.9,29.78,NNW,334,0.0,0.0,79,0.00,,---,0.00,0.00,VWS V14.01,2013-03-21 08:15:00,
2013-03-21 04:20:00,32.8,27.0,29.78,North,5,0.0,0.0,79,0.00,,---,0.00,0.00,VWS V14.01,2013-03-21 08:20:00,
2013-03-21 04:25:00,32.9,26.8,29.78,NNW,345,0.0,0.0,78,0.00,,---,0.00,0.00,VWS V14.01,2013-03-21 08:25:00,
2013-03-21 04:30:00,33.0,26.9,29.78,NNE,22,0.0,0.0,78,0.00,,---,0.00,0.00,VWS V14.01,2013-03-21 08:30:00,
2013-03-21 04:35:00,32.9,26.8,29.77,NE,36,0.0,0.0,78,0.00,,---,0.00,0.00,VWS V14.01,2013-03-21 08:35:00,
2013-03-21 04:40:00,32.5,26.7,29.77,North,5,0.0,0.0,79,0.00,,---,0.00,0.00,VWS V14.01,2013-03-21 08:40:00,
2013-03-21 04:45:00,32.4,26.3,29.77,NE,53,0.0,0.0,78,0.00,,---,0.00,0.00,VWS V14.01,2013-03-21 08:45:00,
2013-03-21 04:50:00,32.4,26.6,29.78,NNW,345,0.0,0.0,79,0.00,,---,0.00,0.00,VWS V14.01,2013-03-21 08:50:00,
2013-03-21 04:55:00,32.4,26.6,29.78,East,90,0.0,0.0,79,0.00,,---,0.00,0.00,VWS V14.01,2013-03-21 08:55:00,
2013-03-21 05:00:00,33.3,26.9,29.78,East,90,0.0,0.0,77,0.00,,---,0.00,0.00,VWS V14.01,2013-03-21 09:00:00,
2013-03-21 05:05:00,33.1,27.0,29.78,East,90,0.0,0.0,78,0.00,,---,0.00,0.00,VWS V14.01,2013-03-21 09:05:00,
2013-03-21 05:10:00,33.1,26.0,29.77,NE,38,0.0,0.0,75,0.00,,---,0.00,0.00,VWS V14.01,2013-03-21 09:10:00,
2013-03-21 05:15:00,32.7,26.3,29.77,NNW,336,0.0,0.0,77,0.00,,---,0.00,0.00,VWS V14.01,2013-03-21 09:15:00,
2013-03-21 05:20:00,33.1,26.7,29.77,NW,325,0.0,0.0,77,0.00,,---,0.00,0.00,VWS V14.01,2013-03-21 09:20:00,
2013-03-21 05:25:00,33.0,26.3,29.77,North,355,0.0,0.0,76,0.00,,---,0.00,0.00,VWS V14.01,2013-03-21 09:25:00,
2013-03-21 05:30:00,32.8,25.8,29.77,NNE,13,0.0,0.0,75,0.00,,---,0.00,0.00,VWS V14.01,2013-03-21 09:30:00,
2013-03-21 05:35:00,33.0,26.0,29.77,NNW,340,0.0,0.0,75,0.00,,---,0.00,0.00,VWS V14.01,2013-03-21 09:35:00,
2013-03-21 05:40:00,33.1,25.7,29.77,NE,52,0.0,0.0,74,0.00,,---,0.00,0.00,VWS V14.01,2013-03-21 09:40:00,
2013-03-21 05:45:00,33.3,24.9,29.77,NNW,347,0.0,0.0,71,0.00,,---,0.00,0.00,VWS V14.01,2013-03-21 09:45:00,
2013-03-21 05:50:00,33.6,24.9,29.78,NNW,347,0.0,0.0,70,0.00,,---,0.00,0.00,VWS V14.01,2013-03-21 09:50:00,
2013-03-21 05:55:00,33.3,24.9,29.78,North,10,0.0,0.0,71,0.00,,---,0.00,0.00,VWS V14.01,2013-03-21 09:55:00,
2013-03-21 06:00:00,33.0,23.6,29.78,NNW,333,0.0,0.0,68,0.00,,---,0.00,0.00,VWS V14.01,2013-03-21 10:00:00,
2013-03-21 06:05:00,32.9,23.2,29.78,NNE,22,0.0,0.0,67,0.00,,---,0.00,0.00,VWS V14.01,2013-03-21 10:05:00,
2013-03-21 06:10:00,32.7,22.6,29.78,North,5,0.0,0.0,66,0.00,,---,0.00,0.00,VWS V14.01,2013-03-21 10:10:00,
2013-03-21 06:15:00,32.6,22.1,29.78,NE,43,0.0,0.0,65,0.00,,---,0.00,0.00,VWS V14.01,2013-03-21 10:15:00,
2013-03-21 06:20:00,32.3,21.5,29.79,SW,227,0.0,0.0,64,0.00,,---,0.00,0.00,VWS V14.01,2013-03-21 10:20:00,
2013-03-21 06:25:00,32.3,21.5,29.79,NNE,32,0.0,0.0,64,0.00,,---,0.00,0.00,VWS V14.01,2013-03-21 10:25:00,
2013-03-21 06:30:00,32.5,21.7,29.80,NNW,348,0.0,0.0,64,0.00,,---,0.00,0.00,VWS V14.01,2013-03-21 10:30:00,
2013-03-21 06:35:00,32.4,21.2,29.80,NNE,12,0.0,0.0,63,0.00,,---,0.00,0.00,VWS V14.01,2013-03-21 10:35:00,
2013-03-21 06:40:00,32.1,20.6,29.80,North,360,0.0,0.0,62,0.00,,---,0.00,0.00,VWS V14.01,2013-03-21 10:40:00,
2013-03-21 06:45:00,32.2,20.7,29.79,NNE,15,0.0,0.0,62,0.00,,---,0.00,0.00,VWS V14.01,2013-03-21 10:45:00,
2013-03-21 06:50:00,32.1,20.2,29.79,North,360,0.0,0.0,61,0.00,,---,0.00,0.00,VWS V14.01,2013-03-21 10:50:00,
2013-03-21 06:55:00,32.3,20.0,29.79,NNE,24,0.0,0.0,60,0.00,,---,0.00,0.00,VWS V14.01,2013-03-21 10:55:00,
2013-03-21 07:00:00,32.0,19.7,29.78,North,9,0.0,0.0,60,0.00,,---,0.00,0.00,VWS V14.01,2013-03-21 11:00:00,
2013-03-21 07:05:00,31.8,19.9,29.79,ENE,66,0.0,0.0,61,0.00,,---,0.00,0.00,VWS V14.01,2013-03-21 11:05:00,
2013-03-21 07:10:00,31.7,19.8,29.79,NE,38,0.0,0.0,61,0.00,,---,0.00,0.00,VWS V14.01,2013-03-21 11:10:00,
2013-03-21 07:15:00,31.6,19.3,29.79,NE,35,0.0,0.0,60,0.00,,---,0.00,5.00,VWS V14.01,2013-03-21 11:15:00,
2013-03-21 07:20:00,31.7,19.8,29.79,NE,47,0.0,0.0,61,0.00,,---,0.00,5.00,VWS V14.01,2013-03-21 11:20:00,
2013-03-21 07:25:00,31.7,19.0,29.79,NNE,32,0.0,0.0,59,0.00,,---,0.00,9.00,VWS V14.01,2013-03-21 11:25:00,
2013-03-21 07:30:00,31.5,19.6,29.79,NNW,337,0.0,0.0,61,0.00,,---,0.00,11.00,VWS V14.01,2013-03-21 11:30:00,
2013-03-21 07:35:00,31.3,19.4,29.79,NNE,12,0.0,0.0,61,0.00,,---,0.00,14.00,VWS V14.01,2013-03-21 11:35:00,
2013-03-21 07:40:00,31.2,19.3,29.79,NNE,26,0.0,0.0,61,0.00,,---,0.00,26.00,VWS V14.01,2013-03-21 11:40:00,
2013-03-21 07:45:00,31.1,19.2,29.79,NNE,12,0.0,0.0,61,0.00,,---,0.00,32.00,VWS V14.01,2013-03-21 11:45:00,
2013-03-21 07:50:00,31.2,19.0,29.79,NNW,340,0.0,0.0,60,0.00,,---,0.00,33.00,VWS V14.01,2013-03-21 11:50:00,
2013-03-21 07:55:00,31.1,18.9,29.79,North,11,0.0,0.0,60,0.00,,---,0.00,42.00,VWS V14.01,2013-03-21 11:55:00,
2013-03-21 08:00:00,31.5,18.8,29.79,ENE,65,0.0,0.0,59,0.00,,---,0.00,46.00,VWS V14.01,2013-03-21 12:00:00,
2013-03-21 08:05:00,31.5,18.8,29.79,NE,39,0.0,0.0,59,0.00,,---,0.00,49.00,VWS V14.01,2013-03-21 12:05:00,
2013-03-21 08:10:00,31.6,17.7,29.78,NNE,13,0.0,0.0,56,0.00,,---,0.00,53.00,VWS V14.01,2013-03-21 12:10:00,
2013-03-21 08:15:00,31.7,17.8,29.79,North,360,0.0,0.0,56,0.00,,---,0.00,53.00,VWS V14.01,2013-03-21 12:15:00,
2013-03-21 08:20:00,31.6,17.7,29.79,NE,40,0.0,0.0,56,0.00,,---,0.00,44.00,VWS V14.01,2013-03-21 12:20:00,
2013-03-21 08:25:00,31.6,16.9,29.78,NE,35,0.0,0.0,54,0.00,,---,0.00,30.00,VWS V14.01,2013-03-21 12:25:00,
2013-03-21 08:30:00,31.5,16.8,29.78,NW,307,0.0,0.0,54,0.00,,---,0.00,33.00,VWS V14.01,2013-03-21 12:30:00,
2013-03-21 08:35:00,31.4,17.1,29.78,NNE,32,0.0,0.0,55,0.00,,---,0.00,33.00,VWS V14.01,2013-03-21 12:35:00,
2013-03-21 08:40:00,31.2,16.9,29.78,NNW,347,0.0,0.0,55,0.00,,---,0.00,53.00,VWS V14.01,2013-03-21 12:40:00,
2013-03-21 08:45:00,31.5,17.6,29.78,North,355,0.0,0.0,56,0.00,,---,0.00,58.00,VWS V14.01,2013-03-21 12:45:00,
2013-03-21 08:50:00,31.6,17.7,29.78,NE,35,0.0,0.0,56,0.00,,---,0.00,60.00,VWS V14.01,2013-03-21 12:50:00,
2013-03-21 08:55:00,31.6,17.7,29.78,NNE,20,0.0,0.0,56,0.00,,---,0.00,69.00,VWS V14.01,2013-03-21 12:55:00,
2013-03-21 09:00:00,31.6,17.7,29.77,North,355,0.0,0.0,56,0.00,,---,0.00,97.00,VWS V14.01,2013-03-21 13:00:00,
2013-03-21 09:05:00,31.7,17.4,29.77,North,10,0.0,0.0,55,0.00,,---,0.00,104.00,VWS V14.01,2013-03-21 13:05:00,
2013-03-21 09:10:00,32.1,17.8,29.77,North,355,0.0,0.0,55,0.00,,---,0.00,111.00,VWS V14.01,2013-03-21 13:10:00,
2013-03-21 09:15:00,31.9,17.6,29.77,North,355,0.0,0.0,55,0.00,,---,0.00,114.00,VWS V14.01,2013-03-21 13:15:00,
2013-03-21 09:20:00,31.9,17.6,29.77,NNE,24,0.0,0.0,55,0.00,,---,0.00,130.00,VWS V14.01,2013-03-21 13:20:00,
2013-03-21 09:25:00,31.8,17.1,29.77,NW,325,0.0,0.0,54,0.00,,---,0.00,141.00,VWS V14.01,2013-03-21 13:25:00,
2013-03-21 09:30:00,32.1,17.3,29.77,ENE,65,0.0,0.0,54,0.00,,---,0.00,149.00,VWS V14.01,2013-03-21 13:30:00,
2013-03-21 09:35:00,32.2,17.4,29.77,North,11,0.0,0.0,54,0.00,,---,0.00,158.00,VWS V14.01,2013-03-21 13:35:00,
2013-03-21 09:40:00,32.7,17.5,29.77,NNE,13,0.0,0.0,53,0.00,,---,0.00,190.00,VWS V14.01,2013-03-21 13:40:00,
2013-03-21 09:45:00,32.9,18.1,29.77,ESE,109,0.0,0.0,54,0.00,,---,0.00,237.00,VWS V14.01,2013-03-21 13:45:00,
2013-03-21 09:50:00,32.6,18.2,29.77,North,350,0.0,0.0,55,0.00,,---,0.00,264.00,VWS V14.01,2013-03-21 13:50:00,
2013-03-21 09:55:00,33.0,18.6,29.77,NE,38,0.0,0.0,55,0.00,,---,0.00,295.00,VWS V14.01,2013-03-21 13:55:00,
2013-03-21 10:00:00,32.8,17.6,29.77,North,360,0.0,0.0,53,0.00,,---,0.00,369.00,VWS V14.01,2013-03-21 14:00:00,
2013-03-21 10:05:00,33.2,17.5,29.76,NE,40,0.0,0.0,52,0.00,,---,0.00,396.00,VWS V14.01,2013-03-21 14:05:00,
2013-03-21 10:10:00,33.7,16.1,29.77,North,5,0.0,0.0,48,0.00,,---,0.00,329.00,VWS V14.01,2013-03-21 14:10:00,
2013-03-21 10:15:00,33.9,17.2,29.76,WNW,292,0.0,0.0,50,0.00,,---,0.00,360.00,VWS V14.01,2013-03-21 14:15:00,
2013-03-21 10:20:00,34.1,16.5,29.76,North,355,0.0,0.0,48,0.00,,---,0.00,309.00,VWS V14.01,2013-03-21 14:20:00,
2013-03-21 10:25:00,34.3,15.7,29.76,NNE,26,0.0,0.0,46,0.00,,---,0.00,279.00,VWS V14.01,2013-03-21 14:25:00,
2013-03-21 10:30:00,33.7,15.1,29.76,NE,43,0.0,0.0,46,0.00,,---,0.00,239.00,VWS V14.01,2013-03-21 14:30:00,
2013-03-21 10:35:00,33.4,14.9,29.76,North,11,0.0,0.0,46,0.00,,---,0.00,211.00,VWS V14.01,2013-03-21 14:35:00,
2013-03-21 10:40:00,33.2,15.6,29.76,North,349,0.0,0.0,48,0.00,,---,0.00,188.00,VWS V14.01,2013-03-21 14:40:00,
2013-03-21 10:45:00,33.3,15.7,29.76,North,5,0.0,0.0,48,0.00,,---,0.00,186.00,VWS V14.01,2013-03-21 14:45:00,
2013-03-21 10:50:00,33.7,15.6,29.76,NE,55,0.0,0.0,47,0.00,,---,0.00,243.00,VWS V14.01,2013-03-21 14:50:00,
2013-03-21 10:55:00,34.1,16.0,29.76,NE,37,0.0,0.0,47,0.00,,---,0.00,239.00,VWS V14.01,2013-03-21 14:55:00,
2013-03-21 11:00:00,33.7,14.6,29.75,North,355,0.0,0.0,45,0.00,,---,0.00,220.00,VWS V14.01,2013-03-21 15:00:00,
2013-03-21 11:05:00,33.9,14.3,29.75,NNW,348,0.0,0.0,44,0.00,,---,0.00,269.00,VWS V14.01,2013-03-21 15:05:00,
2013-03-21 11:10:00,34.1,14.5,29.75,NNE,16,0.0,0.0,44,0.00,,---,0.00,311.00,VWS V14.01,2013-03-21 15:10:00,
2013-03-21 11:15:00,34.4,14.8,29.74,North,351,0.0,0.0,44,0.00,,---,0.00,462.00,VWS V14.01,2013-03-21 15:15:00,
2013-03-21 11:20:00,34.8,14.1,29.74,ENE,61,0.0,0.0,42,0.00,,---,0.00,381.00,VWS V14.01,2013-03-21 15:20:00,
2013-03-21 11:25:00,35.1,15.4,29.74,NNE,12,0.0,0.0,44,0.00,,---,0.00,417.00,VWS V14.01,2013-03-21 15:25:00,
2013-03-21 11:30:00,35.0,15.3,29.74,NE,36,0.0,0.0,44,0.00,,---,0.00,432.00,VWS V14.01,2013-03-21 15:30:00,
2013-03-21 11:35:00,35.6,16.4,29.74,North,355,0.0,0.0,45,0.00,,---,0.00,343.00,VWS V14.01,2013-03-21 15:35:00,
2013-03-21 11:40:00,35.8,15.5,29.74,North,351,0.0,0.0,43,0.00,,---,0.00,329.00,VWS V14.01,2013-03-21 15:40:00,
2013-03-21 11:45:00,35.1,14.3,29.74,NE,40,0.0,0.0,42,0.00,,---,0.00,357.00,VWS V14.01,2013-03-21 15:45:00,
2013-03-21 11:50:00,35.4,14.6,29.74,North,9,0.0,0.0,42,0.00,,---,0.00,388.00,VWS V14.01,2013-03-21 15:50:00,
2013-03-21 11:55:00,36.1,15.2,29.74,NE,37,0.0,0.0,42,0.00,,---,0.00,381.00,VWS V14.01,2013-03-21 15:55:00,
2013-03-21 12:00:00,35.6,14.8,29.74,North,360,0.0,0.0,42,0.00,,---,0.00,424.00,VWS V14.01,2013-03-21 16:00:00,
2013-03-21 12:05:00,35.9,15.1,29.73,North,355,0.0,0.0,42,0.00,,---,0.00,478.00,VWS V14.01,2013-03-21 16:05:00,
2013-03-21 12:10:00,36.2,15.9,29.73,NNW,333,0.0,0.0,43,0.00,,---,0.00,490.00,VWS V14.01,2013-03-21 16:10:00,
2013-03-21 12:15:00,37.1,15.6,29.72,NNE,24,0.0,0.0,41,0.00,,---,0.00,599.00,VWS V14.01,2013-03-21 16:15:00,
2013-03-21 12:20:00,36.6,15.1,29.72,West,281,0.0,0.0,41,0.00,,---,0.00,475.00,VWS V14.01,2013-03-21 16:20:00,
2013-03-21 12:25:00,37.0,15.5,29.72,NNW,344,0.0,0.0,41,0.00,,---,0.00,480.00,VWS V14.01,2013-03-21 16:25:00,
2013-03-21 12:30:00,36.8,15.3,29.72,NNW,345,0.0,0.0,41,0.00,,---,0.00,622.00,VWS V14.01,2013-03-21 16:30:00,
2013-03-21 12:35:00,36.5,15.1,29.72,NE,48,0.0,0.0,41,0.00,,---,0.00,795.00,VWS V14.01,2013-03-21 16:35:00,
2013-03-21 12:40:00,37.4,14.7,29.72,NNE,24,0.0,0.0,39,0.00,,---,0.00,673.00,VWS V14.01,2013-03-21 16:40:00,
2013-03-21 12:45:00,36.4,14.4,29.71,NE,55,0.0,0.0,40,0.00,,---,0.00,580.00,VWS V14.01,2013-03-21 16:45:00,
2013-03-21 12:50:00,36.6,14.6,29.71,NNE,15,0.0,0.0,40,0.00,,---,0.00,608.00,VWS V14.01,2013-03-21 16:50:00,
2013-03-21 12:55:00,38.3,16.1,29.71,NNE,28,0.0,0.0,40,0.00,,---,0.00,631.00,VWS V14.01,2013-03-21 16:55:00,
2013-03-21 13:00:00,38.7,15.9,29.70,West,275,0.0,0.0,39,0.00,,---,0.00,596.00,VWS V14.01,2013-03-21 17:00:00,
2013-03-21 13:05:00,38.6,14.6,29.70,NNW,332,0.0,0.0,37,0.00,,---,0.00,647.00,VWS V14.01,2013-03-21 17:05:00,
2013-03-21 13:10:00,38.5,15.1,29.70,North,5,0.0,0.0,38,0.00,,---,0.00,643.00,VWS V14.01,2013-03-21 17:10:00,
2013-03-21 13:15:00,38.6,15.2,29.70,WNW,291,0.0,0.0,38,0.00,,---,0.00,622.00,VWS V14.01,2013-03-21 17:15:00,
2013-03-21 13:20:00,38.6,16.4,29.70,SW,236,0.0,0.0,40,0.00,,---,0.00,418.00,VWS V14.01,2013-03-21 17:20:00,
2013-03-21 13:25:00,38.5,15.7,29.70,North,11,0.0,0.0,39,0.00,,---,0.00,601.00,VWS V14.01,2013-03-21 17:25:00,
2013-03-21 13:30:00,39.0,16.7,29.70,WNW,289,0.0,0.0,40,0.00,,---,0.00,561.00,VWS V14.01,2013-03-21 17:30:00,
2013-03-21 13:35:00,38.9,16.1,29.69,NW,319,0.0,0.0,39,0.00,,---,0.00,427.00,VWS V14.01,2013-03-21 17:35:00,
2013-03-21 13:40:00,39.1,16.8,29.69,North,349,0.0,0.0,40,0.00,,---,0.00,446.00,VWS V14.01,2013-03-21 17:40:00,
2013-03-21 13:45:00,38.7,17.0,29.69,WNW,290,0.0,0.0,41,0.00,,---,0.00,415.00,VWS V14.01,2013-03-21 17:45:00,
2013-03-21 13:50:00,39.7,16.2,29.69,NNW,330,0.0,0.0,38,0.00,,---,0.00,527.00,VWS V14.01,2013-03-21 17:50:00,
2013-03-21 13:55:00,39.0,16.2,29.69,NW,304,0.0,0.0,39,0.00,,---,0.00,550.00,VWS V14.01,2013-03-21 17:55:00,
2013-03-21 14:00:00,39.3,15.8,29.69,North,5,0.0,0.0,38,0.00,,---,0.00,478.00,VWS V14.01,2013-03-21 18:00:00,
2013-03-21 14:05:00,39.1,16.2,29.69,WNW,292,0.0,0.0,39,0.00,,---,0.00,531.00,VWS V14.01,2013-03-21 18:05:00,
2013-03-21 14:10:00,39.8,16.9,29.68,NNW,333,0.0,0.0,39,0.00,,---,0.00,424.00,VWS V14.01,2013-03-21 18:10:00,
2013-03-21 14:15:00,39.2,15.7,29.68,SSW,210,0.0,0.0,38,0.00,,---,0.00,793.00,VWS V14.01,2013-03-21 18:15:00,
2013-03-21 14:20:00,40.0,15.9,29.68,WNW,286,0.0,0.0,37,0.00,,---,0.00,731.00,VWS V14.01,2013-03-21 18:20:00,
2013-03-21 14:25:00,40.7,15.8,29.68,NW,308,0.0,0.0,36,0.00,,---,0.00,652.00,VWS V14.01,2013-03-21 18:25:00,
2013-03-21 14:30:00,40.0,15.2,29.68,West,266,0.0,0.0,36,0.00,,---,0.00,775.00,VWS V14.01,2013-03-21 18:30:00,
2013-03-21 14:35:00,39.7,14.3,29.67,West,276,0.0,0.0,35,0.00,,---,0.00,446.00,VWS V14.01,2013-03-21 18:35:00,
2013-03-21 14:40:00,39.6,14.2,29.67,NNE,16,0.0,0.0,35,0.00,,---,0.00,464.00,VWS V14.01,2013-03-21 18:40:00,
2013-03-21 14:45:00,40.2,14.8,29.67,North,360,0.0,0.0,35,0.00,,---,0.00,740.00,VWS V14.01,2013-03-21 18:45:00,
2013-03-21 14:50:00,40.5,14.4,29.67,West,271,0.0,0.0,34,0.00,,---,0.00,499.00,VWS V14.01,2013-03-21 18:50:00,
2013-03-21 14:55:00,39.5,13.5,29.67,West,267,0.0,0.0,34,0.00,,---,0.00,471.00,VWS V14.01,2013-03-21 18:55:00,
2013-03-21 15:00:00,40.3,14.8,29.67,NNW,329,0.0,0.0,35,0.00,,---,0.00,805.00,VWS V14.01,2013-03-21 19:00:00,
2013-03-21 15:05:00,40.6,14.4,29.67,NNW,334,0.0,0.0,34,0.00,,---,0.00,670.00,VWS V14.01,2013-03-21 19:05:00,
2013-03-21 15:10:00,40.7,13.9,29.66,North,350,0.0,0.0,33,0.00,,---,0.00,585.00,VWS V14.01,2013-03-21 19:10:00,
2013-03-21 15:15:00,40.1,14.0,29.66,NNW,344,0.0,0.0,34,0.00,,---,0.00,506.00,VWS V14.01,2013-03-21 19:15:00,
2013-03-21 15:20:00,39.4,13.4,29.66,NNE,30,0.0,0.0,34,0.00,,---,0.00,499.00,VWS V14.01,2013-03-21 19:20:00,
2013-03-21 15:25:00,40.5,15.0,29.66,North,5,0.0,0.0,35,0.00,,---,0.00,457.00,VWS V14.01,2013-03-21 19:25:00,
2013-03-21 15:30:00,40.4,14.3,29.66,West,263,0.0,0.0,34,0.00,,---,0.00,464.00,VWS V14.01,2013-03-21 19:30:00,
2013-03-21 15:35:00,40.5,14.4,29.65,WNW,285,0.0,0.0,34,0.00,,---,0.00,334.00,VWS V14.01,2013-03-21 19:35:00,
2013-03-21 15:40:00,40.6,13.8,29.65,North,360,0.0,0.0,33,0.00,,---,0.00,362.00,VWS V14.01,2013-03-21 19:40:00,
2013-03-21 15:45:00,40.5,14.4,29.65,WNW,290,0.0,0.0,34,0.00,,---,0.00,425.00,VWS V14.01,2013-03-21 19:45:00,
2013-03-21 15:50:00,41.1,14.2,29.65,NNW,346,0.0,0.0,33,0.00,,---,0.00,401.00,VWS V14.01,2013-03-21 19:50:00,
2013-03-21 15:55:00,40.9,13.3,29.65,WSW,258,0.0,0.0,32,0.00,,---,0.00,403.00,VWS V14.01,2013-03-21 19:55:00,
2013-03-21 16:00:00,41.3,17.0,29.64,WSW,246,0.0,0.0,37,0.00,,---,0.00,432.00,VWS V14.01,2013-03-21 20:00:00,
2013-03-21 16:05:00,41.8,14.8,29.64,WSW,255,0.0,0.0,33,0.00,,---,0.00,554.00,VWS V14.01,2013-03-21 20:05:00,
2013-03-21 16:10:00,40.9,14.7,29.64,WNW,302,0.0,0.0,34,0.00,,---,0.00,524.00,VWS V14.01,2013-03-21 20:10:00,
2013-03-21 16:15:00,40.3,14.2,29.64,WNW,282,0.0,0.0,34,0.00,,---,0.00,271.00,VWS V14.01,2013-03-21 20:15:00,
2013-03-21 16:20:00,40.1,14.7,29.64,NNW,335,0.0,0.0,35,0.00,,---,0.00,306.00,VWS V14.01,2013-03-21 20:20:00,
2013-03-21 16:25:00,39.7,14.3,29.64,NNW,331,0.0,0.0,35,0.00,,---,0.00,536.00,VWS V14.01,2013-03-21 20:25:00,
2013-03-21 16:30:00,40.0,14.6,29.64,North,9,0.0,0.0,35,0.00,,---,0.00,612.00,VWS V14.01,2013-03-21 20:30:00,
2013-03-21 16:35:00,40.6,14.4,29.64,NNW,340,0.0,0.0,34,0.00,,---,0.00,302.00,VWS V14.01,2013-03-21 20:35:00,
2013-03-21 16:40:00,39.8,14.4,29.64,NNE,18,0.0,0.0,35,0.00,,---,0.00,199.00,VWS V14.01,2013-03-21 20:40:00,
2013-03-21 16:45:00,40.2,14.8,29.64,WNW,298,0.0,0.0,35,0.00,,---,0.00,195.00,VWS V14.01,2013-03-21 20:45:00,
2013-03-21 16:50:00,40.0,14.6,29.64,NNW,333,0.0,0.0,35,0.00,,---,0.00,200.00,VWS V14.01,2013-03-21 20:50:00,
2013-03-21 16:55:00,40.0,14.6,29.64,North,9,0.0,0.0,35,0.00,,---,0.00,186.00,VWS V14.01,2013-03-21 20:55:00,
2013-03-21 17:00:00,40.1,15.3,29.64,WNW,298,0.0,0.0,36,0.00,,---,0.00,163.00,VWS V14.01,2013-03-21 21:00:00,
2013-03-21 17:05:00,39.7,14.9,29.65,WNW,297,0.0,0.0,36,0.00,,---,0.00,144.00,VWS V14.01,2013-03-21 21:05:00,
2013-03-21 17:10:00,40.4,14.9,29.65,West,279,0.0,0.0,35,0.00,,---,0.00,125.00,VWS V14.01,2013-03-21 21:10:00,
2013-03-21 17:15:00,39.8,13.7,29.65,West,263,0.0,0.0,34,0.00,,---,0.00,130.00,VWS V14.01,2013-03-21 21:15:00,
2013-03-21 17:20:00,39.5,13.5,29.64,West,273,0.0,0.0,34,0.00,,---,0.00,118.00,VWS V14.01,2013-03-21 21:20:00,
2013-03-21 17:25:00,39.7,13.6,29.64,NW,322,0.0,0.0,34,0.00,,---,0.00,135.00,VWS V14.01,2013-03-21 21:25:00,
2013-03-21 17:30:00,39.6,12.9,29.65,North,351,0.0,0.0,33,0.00,,---,0.00,243.00,VWS V14.01,2013-03-21 21:30:00,
2013-03-21 17:35:00,39.9,14.5,29.65,NNW,337,0.0,0.0,35,0.00,,---,0.00,155.00,VWS V14.01,2013-03-21 21:35:00,
2013-03-21 17:40:00,40.4,12.9,29.65,NW,305,0.0,0.0,32,0.00,,---,0.00,104.00,VWS V14.01,2013-03-21 21:40:00,
2013-03-21 17:45:00,40.1,13.3,29.65,West,275,0.0,0.0,33,0.00,,---,0.00,86.00,VWS V14.01,2013-03-21 21:45:00,
2013-03-21 17:50:00,39.7,12.3,29.65,North,350,0.0,0.0,32,0.00,,---,0.00,95.00,VWS V14.01,2013-03-21 21:50:00,
2013-03-21 17:55:00,39.6,13.6,29.65,WNW,296,0.0,0.0,34,0.00,,---,0.00,81.00,VWS V14.01,2013-03-21 21:55:00,
2013-03-21 18:00:00,39.5,12.8,29.65,North,355,0.0,0.0,33,0.00,,---,0.00,105.00,VWS V14.01,2013-03-21 22:00:00,
2013-03-21 18:05:00,39.5,12.8,29.65,NNW,329,0.0,0.0,33,0.00,,---,0.00,104.00,VWS V14.01,2013-03-21 22:05:00,
2013-03-21 18:10:00,39.4,12.7,29.66,NW,323,0.0,0.0,33,0.00,,---,0.00,98.00,VWS V14.01,2013-03-21 22:10:00,
2013-03-21 18:15:00,38.9,12.3,29.66,WNW,302,0.0,0.0,33,0.00,,---,0.00,86.00,VWS V14.01,2013-03-21 22:15:00,
2013-03-21 18:20:00,38.7,12.1,29.66,NNW,336,0.0,0.0,33,0.00,,---,0.00,70.00,VWS V14.01,2013-03-21 22:20:00,
2013-03-21 18:25:00,38.3,11.7,29.66,NNW,348,0.0,0.0,33,0.00,,---,0.00,65.00,VWS V14.01,2013-03-21 22:25:00,
2013-03-21 18:30:00,38.0,11.5,29.66,WNW,287,0.0,0.0,33,0.00,,---,0.00,44.00,VWS V14.01,2013-03-21 22:30:00,
2013-03-21 18:35:00,38.0,11.5,29.67,West,278,0.0,0.0,33,0.00,,---,0.00,32.00,VWS V14.01,2013-03-21 22:35:00,
2013-03-21 18:40:00,37.9,11.4,29.67,NW,318,0.0,0.0,33,0.00,,---,0.00,26.00,VWS V14.01,2013-03-21 22:40:00,
2013-03-21 18:45:00,37.7,11.9,29.67,NNW,338,0.0,0.0,34,0.00,,---,0.00,25.00,VWS V14.01,2013-03-21 22:45:00,
2013-03-21 18:50:00,37.9,12.1,29.67,WNW,284,0.0,0.0,34,0.00,,---,0.00,19.00,VWS V14.01,2013-03-21 22:50:00,
2013-03-21 18:55:00,37.8,12.0,29.67,WNW,298,0.0,0.0,34,0.00,,---,0.00,16.00,VWS V14.01,2013-03-21 22:55:00,
2013-03-21 19:00:00,37.3,11.5,29.68,West,272,0.0,0.0,34,0.00,,---,0.00,9.00,VWS V14.01,2013-03-21 23:00:00,
2013-03-21 19:05:00,36.9,11.2,29.68,WSW,248,0.0,0.0,34,0.00,,---,0.00,5.00,VWS V14.01,2013-03-21 23:05:00,
2013-03-21 19:10:00,37.0,11.9,29.68,WNW,282,0.0,0.0,35,0.00,,---,0.00,0.00,VWS V14.01,2013-03-21 23:10:00,
2013-03-21 19:15:00,36.4,11.4,29.69,WNW,301,0.0,0.0,35,0.00,,---,0.00,0.00,VWS V14.01,2013-03-21 23:15:00,
2013-03-21 19:20:00,36.4,12.0,29.69,West,265,0.0,0.0,36,0.00,,---,0.00,0.00,VWS V14.01,2013-03-21 23:20:00,
2013-03-21 19:25:00,36.2,11.2,29.69,West,280,0.0,0.0,35,0.00,,---,0.00,0.00,VWS V14.01,2013-03-21 23:25:00,
2013-03-21 19:30:00,36.1,12.4,29.69,WNW,300,0.0,0.0,37,0.00,,---,0.00,0.00,VWS V14.01,2013-03-21 23:30:00,
2013-03-21 19:35:00,36.2,12.4,29.69,NW,308,0.0,0.0,37,0.00,,---,0.00,0.00,VWS V14.01,2013-03-21 23:35:00,
2013-03-21 19:40:00,36.1,12.4,29.69,NW,315,0.0,0.0,37,0.00,,---,0.00,0.00,VWS V14.01,2013-03-21 23:40:00,
2013-03-21 19:45:00,35.7,12.6,29.70,NW,319,0.0,0.0,38,0.00,,---,0.00,0.00,VWS V14.01,2013-03-21 23:45:00,
2013-03-21 19:50:00,35.7,13.2,29.70,NW,320,0.0,0.0,39,0.00,,---,0.00,0.00,VWS V14.01,2013-03-21 23:50:00,
2013-03-21 19:55:00,35.2,12.7,29.70,West,267,0.0,0.0,39,0.00,,---,0.00,0.00,VWS V14.01,2013-03-21 23:55:00,
2013-03-21 20:00:00,35.1,13.2,29.70,NW,317,0.0,0.0,40,0.00,,---,0.00,0.00,VWS V14.01,2013-03-22 00:00:00,
2013-03-21 20:05:00,35.0,13.1,29.70,WNW,286,0.0,0.0,40,0.00,,---,0.00,0.00,VWS V14.01,2013-03-22 00:05:00,
2013-03-21 20:10:00,34.7,14.0,29.71,WNW,302,0.0,0.0,42,0.00,,---,0.00,0.00,VWS V14.01,2013-03-22 00:10:00,
2013-03-21 20:15:00,34.3,13.6,29.71,WNW,297,0.0,0.0,42,0.00,,---,0.00,0.00,VWS V14.01,2013-03-22 00:15:00,
2013-03-21 20:20:00,34.2,14.1,29.71,West,281,0.0,0.0,43,0.00,,---,0.00,0.00,VWS V14.01,2013-03-22 00:20:00,
2013-03-21 20:25:00,34.0,13.9,29.71,NW,307,0.0,0.0,43,0.00,,---,0.00,0.00,VWS V14.01,2013-03-22 00:25:00,
2013-03-21 20:30:00,34.6,15.5,29.71,West,265,0.0,0.0,45,0.00,,---,0.00,0.00,VWS V14.01,2013-03-22 00:30:00,
2013-03-21 20:35:00,34.3,14.7,29.71,West,267,0.0,0.0,44,0.00,,---,0.00,0.00,VWS V14.01,2013-03-22 00:35:00,
2013-03-21 20:40:00,33.7,14.1,29.72,West,271,0.0,0.0,44,0.00,,---,0.00,0.00,VWS V14.01,2013-03-22 00:40:00,
2013-03-21 20:45:00,33.7,14.1,29.72,West,275,0.0,0.0,44,0.00,,---,0.00,0.00,VWS V14.01,2013-03-22 00:45:00,
2013-03-21 20:50:00,33.2,14.2,29.72,WSW,248,0.0,0.0,45,0.00,,---,0.00,0.00,VWS V14.01,2013-03-22 00:50:00,
2013-03-21 20:55:00,33.1,14.1,29.72,West,279,0.0,0.0,45,0.00,,---,0.00,0.00,VWS V14.01,2013-03-22 00:55:00,
2013-03-21 21:00:00,33.2,15.2,29.72,WNW,296,0.0,0.0,47,0.00,,---,0.00,0.00,VWS V14.01,2013-03-22 01:00:00,
2013-03-21 21:05:00,33.0,14.5,29.72,West,269,0.0,0.0,46,0.00,,---,0.00,0.00,VWS V14.01,2013-03-22 01:05:00,
2013-03-21 21:10:00,33.2,14.2,29.73,WNW,296,0.0,0.0,45,0.00,,---,0.00,0.00,VWS V14.01,2013-03-22 01:10:00,
2013-03-21 21:15:00,33.2,15.2,29.73,NW,310,0.0,0.0,47,0.00,,---,0.00,0.00,VWS V14.01,2013-03-22 01:15:00,
2013-03-21 21:20:00,32.6,14.1,29.73,West,276,0.0,0.0,46,0.00,,---,0.00,0.00,VWS V14.01,2013-03-22 01:20:00,
2013-03-21 21:25:00,32.6,14.6,29.73,NNW,341,0.0,0.0,47,0.00,,---,0.00,0.00,VWS V14.01,2013-03-22 01:25:00,
2013-03-21 21:30:00,32.5,14.0,29.73,WNW,293,0.0,0.0,46,0.00,,---,0.00,0.00,VWS V14.01,2013-03-22 01:30:00,
2013-03-21 21:35:00,32.5,14.0,29.73,West,272,0.0,0.0,46,0.00,,---,0.00,0.00,VWS V14.01,2013-03-22 01:35:00,
2013-03-21 21:40:00,32.6,14.1,29.73,West,275,0.0,0.0,46,0.00,,---,0.00,0.00,VWS V14.01,2013-03-22 01:40:00,
2013-03-21 21:45:00,32.4,13.9,29.73,NW,313,0.0,0.0,46,0.00,,---,0.00,0.00,VWS V14.01,2013-03-22 01:45:00,
2013-03-21 21:50:00,32.1,13.2,29.73,West,281,0.0,0.0,45,0.00,,---,0.00,0.00,VWS V14.01,2013-03-22 01:50:00,
2013-03-21 21:55:00,31.9,13.5,29.74,WSW,248,0.0,0.0,46,0.00,,---,0.00,0.00,VWS V14.01,2013-03-22 01:55:00,
2013-03-21 22:00:00,32.2,13.8,29.74,West,280,0.0,0.0,46,0.00,,---,0.00,0.00,VWS V14.01,2013-03-22 02:00:00,
2013-03-21 22:05:00,32.2,13.8,29.74,WNW,296,0.0,0.0,46,0.00,,---,0.00,0.00,VWS V14.01,2013-03-22 02:05:00,
2013-03-21 22:10:00,31.8,13.9,29.74,West,270,0.0,0.0,47,0.00,,---,0.00,0.00,VWS V14.01,2013-03-22 02:10:00,
2013-03-21 22:15:00,32.0,14.1,29.74,West,281,0.0,0.0,47,0.00,,---,0.00,0.00,VWS V14.01,2013-03-22 02:15:00,
2013-03-21 22:20:00,32.0,13.6,29.74,NNW,327,0.0,0.0,46,0.00,,---,0.00,0.00,VWS V14.01,2013-03-22 02:20:00,
2013-03-21 22:25:00,31.8,13.9,29.74,West,277,0.0,0.0,47,0.00,,---,0.00,0.00,VWS V14.01,2013-03-22 02:25:00,
2013-03-21 22:30:00,31.5,13.1,29.74,WNW,296,0.0,0.0,46,0.00,,---,0.00,0.00,VWS V14.01,2013-03-22 02:30:00,
2013-03-21 22:35:00,31.5,13.6,29.74,West,265,0.0,0.0,47,0.00,,---,0.00,0.00,VWS V14.01,2013-03-22 02:35:00,
2013-03-21 22:40:00,31.5,13.1,29.74,NNW,337,0.0,0.0,46,0.00,,---,0.00,0.00,VWS V14.01,2013-03-22 02:40:00,
2013-03-21 22:45:00,31.4,13.0,29.74,NNW,327,0.0,0.0,46,0.00,,---,0.00,0.00,VWS V14.01,2013-03-22 02:45:00,
2013-03-21 22:50:00,31.4,13.0,29.74,NW,311,0.0,0.0,46,0.00,,---,0.00,0.00,VWS V14.01,2013-03-22 02:50:00,
2013-03-21 22:55:00,31.4,13.0,29.75,NW,325,0.0,0.0,46,0.00,,---,0.00,0.00,VWS V14.01,2013-03-22 02:55:00,
2013-03-21 23:00:00,31.2,12.4,29.75,West,267,0.0,0.0,45,0.00,,---,0.00,0.00,VWS V14.01,2013-03-22 03:00:00,
2013-03-21 23:05:00,31.3,12.9,29.75,WNW,302,0.0,0.0,46,0.00,,---,0.00,0.00,VWS V14.01,2013-03-22 03:05:00,
2013-03-21 23:10:00,31.2,12.4,29.75,NW,304,0.0,0.0,45,0.00,,---,0.00,0.00,VWS V14.01,2013-03-22 03:10:00,
2013-03-21 23:15:00,31.0,12.2,29.75,NW,305,0.0,0.0,45,0.00,,---,0.00,0.00,VWS V14.01,2013-03-22 03:15:00,
2013-03-21 23:20:00,31.3,12.4,29.75,NW,323,0.0,0.0,45,0.00,,---,0.00,0.00,VWS V14.01,2013-03-22 03:20:00,
2013-03-21 23:25:00,31.1,13.2,29.75,WNW,298,0.0,0.0,47,0.00,,---,0.00,0.00,VWS V14.01,2013-03-22 03:25:00,
2013-03-21 23:30:00,31.1,12.8,29.75,WNW,292,0.0,0.0,46,0.00,,---,0.00,0.00,VWS V14.01,2013-03-22 03:30:00,
2013-03-21 23:35:00,31.1,12.8,29.75,NNE,25,0.0,0.0,46,0.00,,---,0.00,0.00,VWS V14.01,2013-03-22 03:35:00,
2013-03-21 23:40:00,31.0,13.1,29.76,NNW,338,0.0,0.0,47,0.00,,---,0.00,0.00,VWS V14.01,2013-03-22 03:40:00,
2013-03-21 23:45:00,31.2,13.3,29.76,WNW,288,0.0,0.0,47,0.00,,---,0.00,0.00,VWS V14.01,2013-03-22 03:45:00,
2013-03-21 23:50:00,31.5,13.1,29.76,WSW,252,0.0,0.0,46,0.00,,---,0.00,0.00,VWS V14.01,2013-03-22 03:50:00,
2013-03-21 23:55:00,31.1,12.8,29.76,West,268,0.0,0.0,46,0.00,,---,0.00,0.00,VWS V14.01,2013-03-22 03:55:00,